Regional Weather Roundup
Issued by NWS

Home | Current Version | Previous Version | Graphics & Text | Print | Product List | Glossary On
Versions: 1 2 3 4 5 6 7 8 9 10 11 12 13 14 15 16 17 18 19 20 21 22 23 24 25 26 27 28 29 30 31 32 33 34 35 36 37 38 39 40 41 42 43 44 45 46 47 48 49 50
000
ASUS43 KLMK 170910
RWRKY
KENTUCKY REGIONAL WEATHER ROUNDUP
NATIONAL WEATHER SERVICE LOUISVILLE KY
500 AM EDT TUE OCT 17 2017

NOTE "FAIR" INDICATES FEW OR NO CLOUDS BELOW 12,000 FEET
WITH NO SIGNIFICANT WEATHER AND/OR OBSTRUCTIONS TO VISIBILITY.

KYZ001>023-026-027-061>063-070>075-171000-
WESTERN AND SOUTH CENTRAL KENTUCKY

CITY           SKY/WX    TMP DP  RH WIND       PRES   REMARKS
PADUCAH        CLEAR     38  35  89 CALM      30.31F
HENDERSON      CLEAR     40  39  97 CALM      30.33S
OWENSBORO      CLEAR     42  40  92 CALM      30.33F
HOPKINSVILLE   CLEAR     43  40  90 CALM      30.31F
BOWLING GREEN  FOG       40  40 100 CALM      30.34R VSB 3/4
GLASGOW        CLEAR     39  39 100 CALM      30.33R
$$

KYZ024-025-028>034-038-045-046-053-171000-
NORTH CENTRAL KENTUCKY

CITY           SKY/WX    TMP DP  RH WIND       PRES   REMARKS
LOUISVILLE/SDF CLEAR     46  42  86 E5        30.33S
LOUISVILLE/LOU CLEAR     41  41 100 CALM      30.34S
FORT KNOX      CLEAR     39  39  99 CALM      30.31
$$

KYZ035>037-039>044-047>052-055>060-089>105-171000-
NORTHEAST KENTUCKY

CITY           SKY/WX    TMP DP  RH WIND       PRES   REMARKS
LEXINGTON      CLEAR     40  36  86 CALM      30.33R
COVINGTON      CLEAR     41  40  96 S3        30.32S
FRANKFORT      CLEAR     39  35  86 CALM      30.33R
$$

KYZ054-064>069-076>088-106>120-171000-
SOUTHEAST KENTUCKY

CITY           SKY/WX    TMP DP  RH WIND       PRES   REMARKS
JACKSON        CLEAR     42  40  92 CALM      30.32S
LONDON         CLEAR     40  38  93 CALM      30.33S
SOMERSET       CLEAR     37  37 100 CALM      30.35R
MIDDLESBORO    FOG       40  40 100 CALM      30.35S VSB 1/4
MONTICELLO     SUNNY     36  35  96 NE8       30.35S WCI  30
$$





USA.gov is the U.S. government's official web portal to all federal, state and local government web resources and services.